C/2018 M1 ( Catalina )

Japanese version
Home page
Updated on October 28, 2018

---------------------------------------------------------------------

* Profile

Discovery Date June 25, 2018
Magnitude 17.6 mag
Discoverer H. Groeller and R. A. Kowalski (Catalina Sky Survey)

* Pictures

* Orbital Elements

Epoch 2018 July 21.0 TT = JDT 2458320.5
T 2018 July 10.02572 TT                                 MPCW
q   1.3035065            (2000.0)            P               Q
n   0.01002992     Peri.   14.13377     +0.97628484     +0.04207052
a  21.2946764      Node   339.46498     -0.20391077     +0.50820235
e   0.9387872      Incl.   37.25778     +0.07272079     +0.86020953
P  98.27
From 146 observations 2018 June 25-Oct. 3, mean residual 0".5.

* Magnitudes Graph

        m1 = 15.5 + 5 log d + 10.0 log r

---------------------------------------------------------------------

The orbital elements are published on M.P.E.C. 2018-U70.
The magnitudes graphs are made with Comet for Windows.

---------------------------------------------------------------------

Copyright(C) Seiichi Yoshida (comet@aerith.net). All rights reserved.